weather.gov     
National Weather Service

Regional Weather Roundup
NWS Homepage
This page is being discontinued on March 12, 2014.
The same data is available at this site. Please update your bookmarks.
Thank you, and we apologize for the inconvenience.
Please send an email to SR-SRH.Webmaster@noaa.gov with any concerns.


Current Version
Previous Version:    01  02  03  04  05  06  07  08  09  10  11  12  13  14  15  16  17  18  19  20  21  22  23  24  25  26  
[Printable]
445
ASUS42 KRAH 230110
RWRRAH
NORTH CAROLINA WEATHER ROUNDUP
NATIONAL WEATHER SERVICE RALEIGH NC
900 PM EDT WED OCT 22 2014

NOTE: "FAIR" INDICATES FEW OR NO CLOUDS BELOW 12,000 FEET WITH NO
SIGNIFICANT WEATHER AND/OR OBSTRUCTIONS TO VISIBILITY.

NCZ001-053-055-056-065-067-230200-
WESTERN NORTH CAROLINA

CITY           SKY/WX    TMP DP  RH WIND       PRES   REMARKS
ASHEVILLE      CLEAR     47  37  68 N16G25    30.15S
JEFFERSON      CLEAR     42  34  74 NW18G28   30.09F
MORGANTON      CLEAR     49  38  66 W5        30.16S
HICKORY        CLEAR     48  38  68 NW6       30.10S
RUTHERFORDTON  CLEAR     50  38  62 N12       30.12S
MOUNT AIRY     CLEAR     52  41  65 NW9       30.10S
BOONE          PTCLDY    42  34  74 NW18G25   30.12F
$$

NCZ021-022-025-041-071-084-088-230200-
CENTRAL NORTH CAROLINA

CITY           SKY/WX    TMP DP  RH WIND       PRES   REMARKS
CHARLOTTE      CLEAR     51  38  60 N8        30.10R
GREENSBORO     CLEAR     51  39  63 NW9       30.05S
WINSTON-SALEM  CLEAR     52  38  58 NW13      30.08S
RALEIGH-DURHAM PTCLDY    55  42  61 W5        30.01R
FORT BRAGG     CLEAR     57  42  57 NW9       30.01R
FAYETTEVILLE   CLEAR     59  41  51 NW10      30.01R
BURLINGTON     CLEAR     54  39  57 NW9       30.04R
LAURINBURG     CLEAR     55  43  63 NW8       30.04R
$$

NCZ011-015-027-028-043-044-047-080-103-230200-
NORTHEASTERN NORTH CAROLINA

CITY           SKY/WX    TMP DP  RH WIND       PRES   REMARKS
ROCKY MT-WILSO CLOUDY    59  48  67 N6        29.98R
GREENVILLE     CLOUDY    55  50  82 N7        29.99R
WASHINGTON     CLOUDY    56  47  73 NW6       29.97R
ELIZABETH CITY CLOUDY    58  49  72 NW16G25   29.90R
MANTEO         CLOUDY    57  50  77 NW16G28   29.88R
CAPE HATTERAS  CLOUDY    58  51  78 NW17G28   29.89R
$$

NCZ078-087-090-091-093-098-101-230200-
SOUTHEASTERN NORTH CAROLINA

CITY           SKY/WX    TMP DP  RH WIND       PRES   REMARKS
LUMBERTON      CLEAR     57  43  59 NW8       30.02R
GOLDSBORO      CLOUDY    59  48  66 CALM      29.97R
KINSTON        MOCLDY    59  48  67 CALM      29.99R
KENANSVILLE    CLEAR     55  43  64 W5        29.99R
NEW BERN       CLOUDY    60  49  66 NW7       29.97R
CHERRY POINT   CLOUDY    58  49  72 NW7       29.97R
BEAUFORT       PTCLDY    59  50  72 NW12      29.96R
JACKSONVILLE   MOCLDY    56  47  71 W9        29.97R
WILMINGTON     CLEAR     57  47  69 NW8       29.99R
$$





U.S. Dept. of Commerce
NOAA National Weather Service
1325 East West Highway
Silver Spring, MD 20910
E-mail: w-nws.webmaster@noaa.gov
Page last modified: May 16, 2007
NATIONAL WEATHER SERVICE: for Safety, for Work, for Fun - FOR LIFE